sat.trackr.live / text

‹ back to catalog

STARLINK-31912

NORAD 59656 · 2024-084C

PAYLOAD ACTIVE UNKNOWN

§ Identity

Operator
Country
US
Launch date
2024-05-06
Launch site
AFETR
Launch vehicle
Mass (kg)
RCS (m²)

Purposes: comms

External: N2YO · Heavens-Above · Gunter

§ Orbital elements

Epoch: 2026-05-24T21:12:16.236000Z

Period
94.27 min
Inclination
43.0006°
Eccentricity
0.0001148
Mean motion
15.27577917 rev/d
Perigee alt
482.3 km
Apogee alt
483.8 km
Semi-major
6,861.2 km
B*
5.2156e-5
RAAN
331.7029°
Arg perigee
264.4532°
Mean anomaly
95.6189°
Rev number
11,602

§ Raw data

STARLINK-319121 59656U 24084C   26144.88352125  .00001173  00000+0  52156-4 0  99942 59656  43.0006 331.7029 0001148 264.4532  95.6189 15.27577917116020

JSON: /api/v1/satellites/59656 · /tle

For live sub-satellite position, see the globe view (requires WebGL).

§ Visibility from observer

Set your observer location to see the next 7 days of passes ≥ 10°. The values pass through the URL so the page stays shareable.

No JS? Fill the form by hand. The geolocation button needs JavaScript.